,,,PA_Meas_PMT16A,,PR_Meas_QMR101_102,,RH_Meas_QMH101,,SR_Meas_QMS101,,TA_Meas_QMH101,,GenWind,,GenWind,
date,time,status,PA,status,PR,status,RH,status,SR,status,TA,status,DirAvg,status,SpdAvg,
2010-02-08, 00:00:05,VALID,1004.54,VALID,0,VALID,90.4186,VALID,0,VALID,24.0329,VALID,180,VALID,1.42656,
2010-02-08, 00:01:05,VALID,1004.53,VALID,0,VALID,90.6475,VALID,0,VALID,24.072,VALID,229,VALID,0.825,
2010-02-08, 00:02:05,VALID,1004.55,VALID,0,VALID,90.6094,VALID,0,VALID,24.0915,VALID,246,VALID,0.260156,
2010-02-08, 00:03:05,VALID,1004.57,VALID,0,VALID,90.4034,VALID,0,VALID,24.111,VALID,246,VALID,0.0183594,
2010-02-08, 00:04:05,VALID,1004.54,VALID,0,VALID,90.3728,VALID,0,VALID,24.0506,VALID,247,VALID,0.426953,
2010-02-08, 00:05:05,VALID,1004.56,VALID,0,VALID,90.4034,VALID,0,VALID,24.0525,VALID,330,VALID,0.666797,
2010-02-08, 00:06:05,VALID,1004.57,VALID,0,VALID,90.4873,VALID,0,VALID,24.0134,VALID,330,VALID,0.660547,
2010-02-08, 00:07:05,VALID,1004.57,VALID,0,VALID,90.5636,VALID,0,VALID,23.9744,VALID,331,VALID,0.573047,
2010-02-08, 00:08:05,VALID,1004.58,VALID,0,VALID,90.6323,VALID,0,VALID,23.9354,VALID,334,VALID,0.260938,
2010-02-08, 00:09:05,VALID,1004.59,VALID,0,VALID,90.6933,VALID,0,VALID,23.9159,VALID,334,VALID,0,
2010-02-08, 00:10:05,VALID,1004.56,VALID,0,VALID,90.7162,VALID,0,VALID,23.8768,VALID,334,VALID,0,
2010-02-08, 00:11:05,VALID,1004.57,VALID,0,VALID,90.8306,VALID,0,VALID,23.8573,VALID,334,VALID,0,
2010-02-08, 00:12:05,VALID,1004.59,VALID,0,VALID,91.0061,VALID,0,VALID,23.8573,VALID,334,VALID,0,
2010-02-08, 00:13:05,VALID,1004.57,VALID,0,VALID,91.1587,VALID,0,VALID,23.8768,VALID,334,VALID,0,
2010-02-08, 00:14:05,VALID,1004.57,VALID,0,VALID,91.2274,VALID,0,VALID,23.8573,VALID,334,VALID,0,
2010-02-08, 00:15:05,VALID,1004.57,VALID,0,VALID,91.2579,VALID,0,VALID,23.8378,VALID,324,VALID,0.419531,
2010-02-08, 00:16:05,VALID,1004.56,VALID,0,VALID,91.3494,VALID,0,VALID,23.8378,VALID,327,VALID,0.457422,
2010-02-08, 00:17:05,VALID,1004.52,VALID,0,VALID,91.3952,VALID,0,VALID,23.8396,VALID,334,VALID,0.860547,
2010-02-08, 00:18:05,VALID,1004.49,VALID,0,VALID,91.5249,VALID,0,VALID,23.8183,VALID,333,VALID,0.653125,
2010-02-08, 00:19:05,VALID,1004.48,VALID,0,VALID,91.6012,VALID,0,VALID,23.7988,VALID,321,VALID,0.446875,
2010-02-08, 00:20:05,VALID,1004.47,VALID,0,VALID,91.6775,VALID,0,VALID,23.7988,VALID,277,VALID,0.459375,
2010-02-08, 00:21:05,VALID,1004.48,VALID,0,VALID,91.7538,VALID,0,VALID,23.8396,VALID,263,VALID,0.376953,
2010-02-08, 00:22:05,VALID,1004.47,VALID,0,VALID,91.7996,VALID,0,VALID,23.7988,VALID,263,VALID,0,
2010-02-08, 00:23:05,VALID,1004.44,VALID,0,VALID,91.8301,VALID,0,VALID,23.8183,VALID,293,VALID,0.53125,
2010-02-08, 00:24:05,VALID,1004.45,VALID,0,VALID,91.792,VALID,0,VALID,23.8183,VALID,327,VALID,0.298828,
2010-02-08, 00:25:05,VALID,1004.47,VALID,0,VALID,91.7996,VALID,0,VALID,23.8183,VALID,327,VALID,0,
2010-02-08, 00:26:05,VALID,1004.4,VALID,0,VALID,91.8454,VALID,0,VALID,23.7988,VALID,327,VALID,0,
2010-02-08, 00:27:05,VALID,1004.4,VALID,0,VALID,91.8759,VALID,0,VALID,23.7988,VALID,327,VALID,0,
2010-02-08, 00:28:05,VALID,1004.4,VALID,0,VALID,91.914,VALID,0,VALID,23.7988,VALID,327,VALID,0,
2010-02-08, 00:29:05,VALID,1004.39,VALID,0,VALID,91.9751,VALID,0,VALID,23.8183,VALID,327,VALID,0,
2010-02-08, 00:30:05,VALID,1004.36,VALID,0,VALID,92.0132,VALID,0,VALID,23.8396,VALID,327,VALID,0,
2010-02-08, 00:31:05,VALID,1004.33,VALID,0,VALID,91.9903,VALID,0,VALID,23.8183,VALID,327,VALID,0,
2010-02-08, 00:32:05,VALID,1004.31,VALID,0,VALID,91.9903,VALID,0,VALID,23.8201,VALID,327,VALID,0,
2010-02-08, 00:33:05,VALID,1004.29,VALID,0,VALID,91.9903,VALID,0,VALID,23.8201,VALID,327,VALID,0,
2010-02-08, 00:34:05,VALID,1004.25,VALID,0,VALID,92.0285,VALID,0,VALID,23.7988,VALID,327,VALID,0,
2010-02-08, 00:35:05,VALID,1004.25,VALID,0,VALID,92.0819,VALID,0,VALID,23.8396,VALID,327,VALID,0,
2010-02-08, 00:36:05,VALID,1004.23,VALID,0,VALID,92.1124,VALID,0,VALID,23.8183,VALID,327,VALID,0,
2010-02-08, 00:37:05,VALID,1004.22,VALID,0,VALID,92.1734,VALID,0,VALID,23.8591,VALID,327,VALID,0,
2010-02-08, 00:38:05,VALID,1004.21,VALID,0,VALID,92.1811,VALID,0,VALID,23.8591,VALID,327,VALID,0,
2010-02-08, 00:39:05,VALID,1004.19,VALID,0,VALID,92.1658,VALID,0,VALID,23.8396,VALID,327,VALID,0,
2010-02-08, 00:40:05,VALID,1004.17,VALID,0,VALID,92.1506,VALID,0,VALID,23.8183,VALID,327,VALID,0,
2010-02-08, 00:41:05,VALID,1004.14,VALID,0,VALID,92.1658,VALID,0,VALID,23.8183,VALID,327,VALID,0,
2010-02-08, 00:42:05,VALID,1004.11,VALID,0,VALID,92.2268,VALID,0,VALID,23.8378,VALID,327,VALID,0,
2010-02-08, 00:43:05,VALID,1004.09,VALID,0,VALID,92.2955,VALID,0,VALID,23.8786,VALID,59,VALID,0.626562,
2010-02-08, 00:44:05,VALID,1004.02,VALID,0,VALID,92.3947,VALID,0,VALID,23.8982,VALID,59,VALID,0.230469,
2010-02-08, 00:45:05,VALID,1004.02,VALID,0,VALID,92.4328,VALID,0,VALID,23.8963,VALID,59,VALID,0.276563,
2010-02-08, 00:46:05,VALID,1004.01,VALID,0,VALID,92.4481,VALID,0,VALID,23.9354,VALID,59,VALID,0.254297,
2010-02-08, 00:47:05,VALID,1003.98,VALID,0,VALID,92.4863,VALID,0,VALID,23.9762,VALID,59,VALID,0.773438,
2010-02-08, 00:48:05,VALID,1003.94,VALID,0,VALID,92.4939,VALID,0,VALID,23.9957,VALID,67,VALID,1.13242,
2010-02-08, 00:49:05,VALID,1003.93,VALID,0,VALID,92.4328,VALID,0,VALID,23.9939,VALID,71,VALID,0.584375,
2010-02-08, 00:50:05,VALID,1003.87,VALID,0,VALID,92.3718,VALID,0,VALID,24.0153,VALID,71,VALID,0,
2010-02-08, 00:51:05,VALID,1003.85,VALID,0,VALID,92.3031,VALID,0,VALID,23.9957,VALID,71,VALID,0,
2010-02-08, 00:52:05,VALID,1003.81,VALID,0,VALID,92.2879,VALID,0,VALID,23.9744,VALID,71,VALID,0,
2010-02-08, 00:53:05,VALID,1003.81,VALID,0,VALID,92.2726,VALID,0,VALID,23.9549,VALID,71,VALID,0,
2010-02-08, 00:54:05,VALID,1003.81,VALID,0,VALID,92.2955,VALID,0,VALID,23.9567,VALID,78,VALID,0,
2010-02-08, 00:55:05,VALID,1003.8,VALID,0,VALID,92.3031,VALID,0,VALID,23.9549,VALID,107,VALID,0.432422,
2010-02-08, 00:56:05,VALID,1003.83,VALID,0,VALID,92.2726,VALID,0,VALID,23.9354,VALID,106,VALID,1.49297,
2010-02-08, 00:57:05,VALID,1003.79,VALID,0,VALID,92.1963,VALID,0,VALID,23.9159,VALID,134,VALID,0.730469,
2010-02-08, 00:58:05,VALID,1003.8,VALID,0,VALID,92.1658,VALID,0,VALID,23.9177,VALID,93,VALID,0.473437,
2010-02-08, 00:59:05,VALID,1003.77,VALID,0,VALID,92.1582,VALID,0,VALID,23.8555,VALID,46,VALID,0.761719,
2010-02-08, 01:00:05,VALID,1003.75,VALID,0,VALID,92.1734,VALID,0,VALID,23.8555,VALID,46,VALID,0,
2010-02-08, 01:01:05,VALID,1003.74,VALID,0,VALID,92.1734,VALID,0,VALID,23.8378,VALID,46,VALID,0,
2010-02-08, 01:02:05,VALID,1003.75,VALID,0,VALID,92.2192,VALID,0,VALID,23.797,VALID,46,VALID,0,
2010-02-08, 01:03:05,VALID,1003.75,VALID,0,VALID,92.2192,VALID,0,VALID,23.7988,VALID,46,VALID,0,
2010-02-08, 01:04:05,VALID,1003.75,VALID,0,VALID,92.265,VALID,0,VALID,23.7775,VALID,46,VALID,0,
2010-02-08, 01:05:05,VALID,1003.75,VALID,0,VALID,92.2955,VALID,0,VALID,23.7775,VALID,46,VALID,0,
2010-02-08, 01:06:05,VALID,1003.7,VALID,0,VALID,92.3184,VALID,0,VALID,23.797,VALID,46,VALID,0,
2010-02-08, 01:07:05,VALID,1003.71,VALID,0,VALID,92.3642,VALID,0,VALID,23.7775,VALID,46,VALID,0,
2010-02-08, 01:08:05,VALID,1003.69,VALID,0,VALID,92.3642,VALID,0,VALID,23.7579,VALID,46,VALID,0,
2010-02-08, 01:09:05,VALID,1003.7,VALID,0,VALID,92.3871,VALID,0,VALID,23.7988,VALID,46,VALID,0,
2010-02-08, 01:10:05,VALID,1003.64,VALID,0,VALID,92.3718,VALID,0,VALID,23.7988,VALID,46,VALID,0,
2010-02-08, 01:11:05,VALID,1003.66,VALID,0,VALID,92.3413,VALID,0,VALID,23.7597,VALID,46,VALID,0,
2010-02-08, 01:12:05,VALID,1003.63,VALID,0,VALID,92.2803,VALID,0,VALID,23.7189,VALID,46,VALID,0,
2010-02-08, 01:13:05,VALID,1003.61,VALID,0,VALID,92.3489,VALID,0,VALID,23.7189,VALID,46,VALID,0,
2010-02-08, 01:14:05,VALID,1003.61,VALID,0,VALID,92.3794,VALID,0,VALID,23.7402,VALID,46,VALID,0,
2010-02-08, 01:15:05,VALID,1003.61,VALID,0,VALID,92.3337,VALID,0,VALID,23.7207,VALID,46,VALID,0,
2010-02-08, 01:16:05,VALID,1003.6,VALID,0,VALID,92.3108,VALID,0,VALID,23.7012,VALID,46,VALID,0,
2010-02-08, 01:17:05,VALID,1003.59,VALID,0,VALID,92.3566,VALID,0,VALID,23.703,VALID,46,VALID,0.403125,
2010-02-08, 01:18:05,VALID,1003.58,VALID,0,VALID,92.4252,VALID,0,VALID,23.6817,VALID,46,VALID,0.426953,
2010-02-08, 01:19:05,VALID,1003.58,VALID,0,VALID,92.5168,VALID,0,VALID,23.7012,VALID,269,VALID,0.636328,
2010-02-08, 01:20:05,VALID,1003.56,VALID,0,VALID,92.5778,VALID,0,VALID,23.742,VALID,269,VALID,0.374609,
2010-02-08, 01:21:05,VALID,1003.6,VALID,0,VALID,92.5778,VALID,0,VALID,23.7402,VALID,251,VALID,0.271094,
2010-02-08, 01:22:05,VALID,1003.59,VALID,0,VALID,92.5091,VALID,0,VALID,23.7207,VALID,251,VALID,0,
2010-02-08, 01:23:05,VALID,1003.6,VALID,0,VALID,92.3718,VALID,0,VALID,23.6817,VALID,164,VALID,0,
2010-02-08, 01:24:05,VALID,1003.6,VALID,0,VALID,92.41,VALID,0,VALID,23.6622,VALID,152,VALID,0,
2010-02-08, 01:25:05,VALID,1003.59,VALID,0,VALID,92.4481,VALID,0,VALID,23.6427,VALID,134,VALID,0,
2010-02-08, 01:26:05,VALID,1003.57,VALID,0,VALID,92.5549,VALID,0,VALID,23.6835,VALID,134,VALID,0.832812,
2010-02-08, 01:27:05,VALID,1003.59,VALID,0,VALID,92.5397,VALID,0,VALID,23.6427,VALID,157,VALID,1.06875,
2010-02-08, 01:28:05,VALID,1003.61,VALID,0,VALID,92.6465,VALID,0,VALID,23.6835,VALID,169,VALID,1.06758,
2010-02-08, 01:29:05,VALID,1003.63,VALID,0,VALID,92.7609,VALID,0,VALID,23.7012,VALID,167,VALID,1.05,
2010-02-08, 01:30:05,VALID,1003.64,VALID,0,VALID,92.7838,VALID,0,VALID,23.7402,VALID,167,VALID,0.885938,
2010-02-08, 01:31:05,VALID,1003.63,VALID,0,VALID,92.8754,VALID,0,VALID,23.7793,VALID,146,VALID,1.25469,
2010-02-08, 01:32:05,VALID,1003.64,VALID,0,VALID,92.7685,VALID,0,VALID,23.8006,VALID,155,VALID,0.901172,
2010-02-08, 01:33:05,VALID,1003.63,VALID,0,VALID,92.738,VALID,0,VALID,23.7597,VALID,162,VALID,0.835547,
2010-02-08, 01:34:05,VALID,1003.65,VALID,0,VALID,92.7075,VALID,0,VALID,23.7616,VALID,159,VALID,0.95625,
2010-02-08, 01:35:05,VALID,1003.62,VALID,0,VALID,92.6846,VALID,0,VALID,23.7402,VALID,151,VALID,0.859766,
2010-02-08, 01:36:05,VALID,1003.63,VALID,0,VALID,92.6923,VALID,0,VALID,23.7402,VALID,159,VALID,0.567969,
2010-02-08, 01:37:05,VALID,1003.62,VALID,0,VALID,92.7075,VALID,0,VALID,23.7597,VALID,159,VALID,0.541797,
2010-02-08, 01:38:05,VALID,1003.62,VALID,0,VALID,92.7228,VALID,0,VALID,23.7597,VALID,159,VALID,0.320313,
2010-02-08, 01:39:05,VALID,1003.6,VALID,0,VALID,92.7991,VALID,0,VALID,23.7793,VALID,187,VALID,0.669141,
2010-02-08, 01:40:05,VALID,1003.63,VALID,0,VALID,92.822,VALID,0,VALID,23.8183,VALID,195,VALID,0.532812,
2010-02-08, 01:41:05,VALID,1003.59,VALID,0,VALID,92.8372,VALID,0,VALID,23.8378,VALID,195,VALID,0.44375,
2010-02-08, 01:42:05,VALID,1003.59,VALID,0,VALID,92.8372,VALID,0,VALID,23.8573,VALID,195,VALID,0.491797,
2010-02-08, 01:43:05,VALID,1003.58,VALID,0,VALID,92.7838,VALID,0,VALID,23.8573,VALID,187,VALID,0.905078,
2010-02-08, 01:44:05,VALID,1003.57,VALID,0,VALID,92.738,VALID,0,VALID,23.8573,VALID,175,VALID,1.06133,
2010-02-08, 01:45:05,VALID,1003.56,VALID,0,VALID,92.6312,VALID,0,VALID,23.8573,VALID,173,VALID,0.957422,
2010-02-08, 01:46:05,VALID,1003.55,VALID,0,VALID,92.532,VALID,0,VALID,23.8378,VALID,147,VALID,1.17148,
2010-02-08, 01:47:05,VALID,1003.54,VALID,0,VALID,92.5015,VALID,0,VALID,23.8183,VALID,151,VALID,0.717969,
2010-02-08, 01:48:05,VALID,1003.55,VALID,0,VALID,92.4939,VALID,0,VALID,23.8183,VALID,154,VALID,0.611719,
2010-02-08, 01:49:05,VALID,1003.56,VALID,0,VALID,92.5244,VALID,0,VALID,23.8378,VALID,154,VALID,0.461328,
2010-02-08, 01:50:05,VALID,1003.54,VALID,0,VALID,92.5015,VALID,0,VALID,23.8183,VALID,154,VALID,0.115625,
2010-02-08, 01:51:05,VALID,1003.52,VALID,0,VALID,92.4863,VALID,0,VALID,23.8183,VALID,167,VALID,0.348437,
2010-02-08, 01:52:05,VALID,1003.55,VALID,0,VALID,92.4023,VALID,0,VALID,23.7988,VALID,167,VALID,0,
2010-02-08, 01:53:05,VALID,1003.56,VALID,0,VALID,92.3108,VALID,0,VALID,23.8006,VALID,167,VALID,0,
2010-02-08, 01:54:05,VALID,1003.55,VALID,0,VALID,92.2879,VALID,0,VALID,23.7597,VALID,167,VALID,0,
2010-02-08, 01:55:05,VALID,1003.52,VALID,0,VALID,92.3718,VALID,0,VALID,23.7597,VALID,173,VALID,0,
2010-02-08, 01:56:05,VALID,1003.53,VALID,0,VALID,92.471,VALID,0,VALID,23.7402,VALID,261,VALID,0.760156,
2010-02-08, 01:57:05,VALID,1003.53,VALID,0,VALID,92.4786,VALID,0,VALID,23.7402,VALID,263,VALID,0.394531,
2010-02-08, 01:58:05,VALID,1003.52,VALID,0,VALID,92.4252,VALID,0,VALID,23.7207,VALID,264,VALID,0,
2010-02-08, 01:59:05,VALID,1003.52,VALID,0,VALID,92.3871,VALID,0,VALID,23.6799,VALID,264,VALID,0,
2010-02-08, 02:00:05,VALID,1003.52,VALID,0,VALID,92.4557,VALID,0,VALID,23.6409,VALID,264,VALID,0,
2010-02-08, 02:01:05,VALID,1003.49,VALID,0,VALID,92.4481,VALID,0,VALID,23.6214,VALID,263,VALID,0.0386719,
2010-02-08, 02:02:05,VALID,1003.51,VALID,0,VALID,92.5168,VALID,0,VALID,23.6427,VALID,263,VALID,0.382813,
2010-02-08, 02:03:05,VALID,1003.47,VALID,0,VALID,92.5626,VALID,0.112286,VALID,23.6214,VALID,257,VALID,0.657031,
2010-02-08, 02:04:05,VALID,1003.5,VALID,0,VALID,92.5854,VALID,0,VALID,23.6232,VALID,248,VALID,0.508594,
2010-02-08, 02:05:05,VALID,1003.51,VALID,0,VALID,92.6236,VALID,0,VALID,23.6019,VALID,258,VALID,0.809375,
2010-02-08, 02:06:05,VALID,1003.47,VALID,0,VALID,92.6388,VALID,0.112286,VALID,23.6214,VALID,258,VALID,0.0832031,
2010-02-08, 02:07:05,VALID,1003.49,VALID,0,VALID,92.6465,VALID,0,VALID,23.6019,VALID,258,VALID,0,
2010-02-08, 02:08:05,VALID,1003.5,VALID,0,VALID,92.6083,VALID,0,VALID,23.5823,VALID,258,VALID,0,
2010-02-08, 02:09:05,VALID,1003.48,VALID,0,VALID,92.6541,VALID,0,VALID,23.5823,VALID,258,VALID,0,
2010-02-08, 02:10:05,VALID,1003.5,VALID,0,VALID,92.6617,VALID,0.112286,VALID,23.5823,VALID,258,VALID,0,
2010-02-08, 02:11:05,VALID,1003.47,VALID,0,VALID,92.7075,VALID,0,VALID,23.5823,VALID,258,VALID,0,
2010-02-08, 02:12:05,VALID,1003.48,VALID,0,VALID,92.6923,VALID,0,VALID,23.5823,VALID,258,VALID,0,
2010-02-08, 02:13:05,VALID,1003.46,VALID,0,VALID,92.6617,VALID,0,VALID,23.5628,VALID,239,VALID,0,
2010-02-08, 02:14:04,VALID,1003.43,VALID,0,VALID,92.6617,VALID,0,VALID,23.5646,VALID,194,VALID,0,
2010-02-08, 02:15:04,VALID,1003.42,VALID,0,VALID,92.6617,VALID,0,VALID,23.5433,VALID,183,VALID,0.448047,
2010-02-08, 02:16:04,VALID,1003.4,VALID,0,VALID,92.6083,VALID,0,VALID,23.5256,VALID,169,VALID,0.659766,
2010-02-08, 02:17:04,VALID,1003.4,VALID,0,VALID,92.6312,VALID,0,VALID,23.5256,VALID,168,VALID,0.724219,
2010-02-08, 02:18:04,VALID,1003.39,VALID,0,VALID,92.6999,VALID,0,VALID,23.5451,VALID,167,VALID,0.814453,
2010-02-08, 02:19:04,VALID,1003.4,VALID,0,VALID,92.7457,VALID,0,VALID,23.5646,VALID,167,VALID,0.329297,
2010-02-08, 02:20:04,VALID,1003.36,VALID,0,VALID,92.7685,VALID,0,VALID,23.5628,VALID,167,VALID,0,
2010-02-08, 02:21:04,VALID,1003.37,VALID,0,VALID,92.7457,VALID,0,VALID,23.6036,VALID,167,VALID,0,
2010-02-08, 02:22:04,VALID,1003.34,VALID,0,VALID,92.7075,VALID,0,VALID,23.6232,VALID,167,VALID,0,
2010-02-08, 02:23:04,VALID,1003.34,VALID,0,VALID,92.41,VALID,0,VALID,23.5646,VALID,167,VALID,0.259766,
2010-02-08, 02:24:04,VALID,1003.37,VALID,0,VALID,92.1658,VALID,0,VALID,23.4671,VALID,167,VALID,0,
2010-02-08, 02:25:04,VALID,1003.33,VALID,0,VALID,92.2803,VALID,0,VALID,23.4085,VALID,167,VALID,0,
2010-02-08, 02:26:04,VALID,1003.32,VALID,0,VALID,92.4557,VALID,0,VALID,23.4085,VALID,167,VALID,0,
2010-02-08, 02:27:04,VALID,1003.28,VALID,0,VALID,92.4557,VALID,0,VALID,23.4085,VALID,167,VALID,0,
2010-02-08, 02:28:04,VALID,1003.26,VALID,0,VALID,92.5702,VALID,0,VALID,23.4085,VALID,167,VALID,0,
2010-02-08, 02:29:04,VALID,1003.25,VALID,0,VALID,92.6007,VALID,0,VALID,23.4085,VALID,167,VALID,0,
2010-02-08, 02:30:04,VALID,1003.24,VALID,0,VALID,92.6694,VALID,0,VALID,23.4085,VALID,167,VALID,0,
2010-02-08, 02:31:04,VALID,1003.22,VALID,0,VALID,92.7762,VALID,0,VALID,23.4475,VALID,149,VALID,0,
2010-02-08, 02:32:04,VALID,1003.22,VALID,0,VALID,92.7457,VALID,0,VALID,23.4475,VALID,139,VALID,0,
2010-02-08, 02:33:04,VALID,1003.19,VALID,0,VALID,92.7609,VALID,0,VALID,23.4671,VALID,139,VALID,0,
2010-02-08, 02:34:04,VALID,1003.23,VALID,0,VALID,92.7457,VALID,0,VALID,23.4475,VALID,136,VALID,0,
2010-02-08, 02:35:04,VALID,1003.25,VALID,0,VALID,92.738,VALID,0,VALID,23.4475,VALID,129,VALID,0.504297,
2010-02-08, 02:36:04,VALID,1003.24,VALID,0,VALID,92.6846,VALID,0,VALID,23.428,VALID,128,VALID,1.05078,
2010-02-08, 02:37:04,VALID,1003.2,VALID,0,VALID,92.7075,VALID,0,VALID,23.389,VALID,127,VALID,1.21211,
2010-02-08, 02:38:04,VALID,1003.21,VALID,0,VALID,92.7228,VALID,0,VALID,23.389,VALID,127,VALID,1.22578,
2010-02-08, 02:39:04,VALID,1003.2,VALID,0,VALID,92.7075,VALID,0,VALID,23.3695,VALID,125,VALID,1.32305,
2010-02-08, 02:40:04,VALID,1003.18,VALID,0,VALID,92.7762,VALID,0,VALID,23.35,VALID,121,VALID,1.2043,
2010-02-08, 02:41:04,VALID,1003.17,VALID,0,VALID,92.7762,VALID,0,VALID,23.35,VALID,115,VALID,0.999609,
2010-02-08, 02:42:04,VALID,1003.15,VALID,0,VALID,92.8677,VALID,0,VALID,23.3305,VALID,110,VALID,1.26563,
2010-02-08, 02:43:04,VALID,1003.16,VALID,0,VALID,92.944,VALID,0,VALID,23.35,VALID,106,VALID,1.12148,
2010-02-08, 02:44:04,VALID,1003.16,VALID,0,VALID,92.9974,VALID,0,VALID,23.35,VALID,103,VALID,0.964063,
2010-02-08, 02:45:04,VALID,1003.15,VALID,0,VALID,92.9593,VALID,0,VALID,23.3287,VALID,102,VALID,0.908984,
2010-02-08, 02:46:04,VALID,1003.14,VALID,0,VALID,92.9211,VALID,0,VALID,23.3305,VALID,102,VALID,0.462891,
2010-02-08, 02:47:04,VALID,1003.12,VALID,0,VALID,92.9211,VALID,0,VALID,23.3518,VALID,102,VALID,0.0957031,
2010-02-08, 02:48:04,VALID,1003.14,VALID,0,VALID,92.9211,VALID,0,VALID,23.2915,VALID,102,VALID,0,
2010-02-08, 02:49:04,VALID,1003.15,VALID,0,VALID,92.8983,VALID,0,VALID,23.2719,VALID,101,VALID,0,
2010-02-08, 02:50:04,VALID,1003.14,VALID,0,VALID,92.8448,VALID,0,VALID,23.2524,VALID,102,VALID,0,
2010-02-08, 02:51:04,VALID,1003.16,VALID,0,VALID,92.8525,VALID,0,VALID,23.2134,VALID,101,VALID,0,
2010-02-08, 02:52:04,VALID,1003.15,VALID,0,VALID,92.9745,VALID,0,VALID,23.2134,VALID,101,VALID,0,
2010-02-08, 02:53:04,VALID,1003.18,VALID,0,VALID,93.0508,VALID,0,VALID,23.2329,VALID,101,VALID,0,
2010-02-08, 02:54:04,VALID,1003.16,VALID,0,VALID,92.9974,VALID,0,VALID,23.2329,VALID,101,VALID,0,
2010-02-08, 02:55:04,VALID,1003.18,VALID,0,VALID,92.8983,VALID,0,VALID,23.1744,VALID,101,VALID,0,
2010-02-08, 02:56:04,VALID,1003.16,VALID,0,VALID,92.8677,VALID,0,VALID,23.1159,VALID,102,VALID,0,
2010-02-08, 02:57:04,VALID,1003.13,VALID,0,VALID,92.9211,VALID,0,VALID,23.0964,VALID,101,VALID,0,
2010-02-08, 02:58:04,VALID,1003.12,VALID,0,VALID,93.089,VALID,0,VALID,23.1354,VALID,355,VALID,0,
2010-02-08, 02:59:04,VALID,1003.15,VALID,0,VALID,93.1577,VALID,0,VALID,23.1549,VALID,322,VALID,0,
2010-02-08, 03:00:04,VALID,1003.13,VALID,0,VALID,93.1882,VALID,0,VALID,23.1744,VALID,322,VALID,0,
2010-02-08, 03:01:04,VALID,1003.14,VALID,0,VALID,93.2187,VALID,0,VALID,23.1939,VALID,322,VALID,0,
2010-02-08, 03:02:04,VALID,1003.12,VALID,0,VALID,93.2416,VALID,0,VALID,23.2329,VALID,322,VALID,0,
2010-02-08, 03:03:04,VALID,1003.16,VALID,0,VALID,93.2568,VALID,0,VALID,23.2524,VALID,322,VALID,0,
2010-02-08, 03:04:04,VALID,1003.18,VALID,0,VALID,93.2797,VALID,0,VALID,23.2915,VALID,322,VALID,0,
2010-02-08, 03:05:04,VALID,1003.15,VALID,0,VALID,93.3026,VALID,0,VALID,23.2915,VALID,322,VALID,0,
2010-02-08, 03:06:04,VALID,1003.17,VALID,0,VALID,93.2874,VALID,0,VALID,23.3305,VALID,322,VALID,0,
2010-02-08, 03:07:04,VALID,1003.14,VALID,0,VALID,93.3408,VALID,0,VALID,23.3695,VALID,322,VALID,0,
2010-02-08, 03:08:04,VALID,1003.15,VALID,0,VALID,93.3255,VALID,0,VALID,23.4085,VALID,322,VALID,0,
2010-02-08, 03:09:04,VALID,1003.17,VALID,0,VALID,93.3255,VALID,0,VALID,23.4085,VALID,322,VALID,0,
2010-02-08, 03:10:04,VALID,1003.15,VALID,0,VALID,93.356,VALID,0,VALID,23.428,VALID,150,VALID,0,
2010-02-08, 03:11:04,VALID,1003.16,VALID,0,VALID,93.3408,VALID,0,VALID,23.4475,VALID,164,VALID,0.295312,
2010-02-08, 03:12:04,VALID,1003.19,VALID,0,VALID,93.3331,VALID,0,VALID,23.4671,VALID,168,VALID,0.609375,
2010-02-08, 03:13:04,VALID,1003.2,VALID,0,VALID,93.3255,VALID,0,VALID,23.4866,VALID,168,VALID,0.439844,
2010-02-08, 03:14:04,VALID,1003.2,VALID,0,VALID,93.3255,VALID,0,VALID,23.4866,VALID,168,VALID,0.532812,
2010-02-08, 03:15:04,VALID,1003.2,VALID,0,VALID,93.3179,VALID,0,VALID,23.4848,VALID,165,VALID,0.874609,
2010-02-08, 03:16:04,VALID,1003.15,VALID,0,VALID,93.295,VALID,0,VALID,23.5451,VALID,183,VALID,0.889453,
2010-02-08, 03:17:04,VALID,1003.17,VALID,0,VALID,93.2645,VALID,0,VALID,23.5646,VALID,191,VALID,1.09805,
2010-02-08, 03:18:04,VALID,1003.18,VALID,0,VALID,93.2492,VALID,0,VALID,23.6036,VALID,188,VALID,0.814453,
2010-02-08, 03:19:04,VALID,1003.19,VALID,0,VALID,93.1729,VALID,0,VALID,23.6427,VALID,189,VALID,0.567187,
2010-02-08, 03:20:04,VALID,1003.2,VALID,0,VALID,93.0508,VALID,0,VALID,23.6427,VALID,189,VALID,0,
2010-02-08, 03:21:04,VALID,1003.22,VALID,0,VALID,92.9822,VALID,0,VALID,23.6622,VALID,191,VALID,0,
2010-02-08, 03:22:04,VALID,1003.25,VALID,0,VALID,92.8906,VALID,0,VALID,23.6427,VALID,197,VALID,0,
2010-02-08, 03:23:04,VALID,1003.22,VALID,0,VALID,92.8296,VALID,0,VALID,23.6232,VALID,196,VALID,0,
2010-02-08, 03:24:04,VALID,1003.22,VALID,0,VALID,92.7914,VALID,0,VALID,23.6036,VALID,196,VALID,0,
2010-02-08, 03:25:04,VALID,1003.2,VALID,0,VALID,92.7762,VALID,0,VALID,23.5841,VALID,196,VALID,0,
2010-02-08, 03:26:04,VALID,1003.22,VALID,0,VALID,92.7685,VALID,0,VALID,23.5841,VALID,196,VALID,0,
2010-02-08, 03:27:04,VALID,1003.2,VALID,0,VALID,92.7991,VALID,0,VALID,23.5646,VALID,196,VALID,0,
2010-02-08, 03:28:04,VALID,1003.21,VALID,0,VALID,92.8372,VALID,0,VALID,23.5841,VALID,197,VALID,0,
2010-02-08, 03:29:04,VALID,1003.22,VALID,0,VALID,92.8448,VALID,0,VALID,23.5841,VALID,210,VALID,0,
2010-02-08, 03:30:04,VALID,1003.21,VALID,0,VALID,92.8525,VALID,0,VALID,23.6036,VALID,233,VALID,0,
2010-02-08, 03:31:04,VALID,1003.23,VALID,0,VALID,92.8143,VALID,0,VALID,23.5841,VALID,268,VALID,0,
2010-02-08, 03:32:04,VALID,1003.24,VALID,0,VALID,92.7914,VALID,0,VALID,23.5646,VALID,283,VALID,0,
2010-02-08, 03:33:04,VALID,1003.25,VALID,0,VALID,92.7457,VALID,0,VALID,23.5646,VALID,283,VALID,0,
2010-02-08, 03:34:04,VALID,1003.23,VALID,0,VALID,92.7609,VALID,0,VALID,23.5451,VALID,283,VALID,0,
2010-02-08, 03:35:04,VALID,1003.21,VALID,0,VALID,92.7991,VALID,0,VALID,23.5451,VALID,227,VALID,0.179688,
2010-02-08, 03:36:04,VALID,1003.24,VALID,0,VALID,92.822,VALID,0,VALID,23.5451,VALID,209,VALID,0.653125,
2010-02-08, 03:37:04,VALID,1003.23,VALID,0,VALID,92.8143,VALID,0,VALID,23.5451,VALID,206,VALID,0.357812,
2010-02-08, 03:38:04,VALID,1003.25,VALID,0,VALID,92.7685,VALID,0,VALID,23.5256,VALID,206,VALID,0,
2010-02-08, 03:39:04,VALID,1003.25,VALID,0,VALID,92.6694,VALID,0,VALID,23.4866,VALID,206,VALID,0,
2010-02-08, 03:40:04,VALID,1003.26,VALID,0,VALID,92.6541,VALID,0,VALID,23.4475,VALID,206,VALID,0,
2010-02-08, 03:41:04,VALID,1003.26,VALID,0,VALID,92.5168,VALID,0,VALID,23.389,VALID,206,VALID,0,
2010-02-08, 03:42:04,VALID,1003.26,VALID,0,VALID,92.532,VALID,0,VALID,23.3305,VALID,206,VALID,0,
2010-02-08, 03:43:04,VALID,1003.34,VALID,0,VALID,92.6465,VALID,0,VALID,23.3305,VALID,206,VALID,0,
2010-02-08, 03:44:04,VALID,1003.35,VALID,0,VALID,92.6999,VALID,0,VALID,23.3305,VALID,206,VALID,0,
2010-02-08, 03:45:04,VALID,1003.36,VALID,0,VALID,92.7457,VALID,0,VALID,23.311,VALID,307,VALID,0,
2010-02-08, 03:46:04,VALID,1003.36,VALID,0,VALID,92.7685,VALID,0,VALID,23.311,VALID,353,VALID,0.952344,
2010-02-08, 03:47:04,VALID,1003.37,VALID,0,VALID,92.7304,VALID,0,VALID,23.2524,VALID,353,VALID,0.783203,
2010-02-08, 03:48:04,VALID,1003.36,VALID,0,VALID,92.8296,VALID,0,VALID,23.2737,VALID,353,VALID,0.283594,
2010-02-08, 03:49:04,VALID,1003.36,VALID,0,VALID,92.8983,VALID,0,VALID,23.2524,VALID,353,VALID,0.305078,
2010-02-08, 03:50:04,VALID,1003.34,VALID,0,VALID,92.8983,VALID,0,VALID,23.2329,VALID,353,VALID,0,
2010-02-08, 03:51:04,VALID,1003.36,VALID,0,VALID,92.8677,VALID,0,VALID,23.1939,VALID,353,VALID,0,
2010-02-08, 03:52:04,VALID,1003.37,VALID,0,VALID,92.9059,VALID,0,VALID,23.2134,VALID,353,VALID,0,
2010-02-08, 03:53:04,VALID,1003.36,VALID,0,VALID,92.8906,VALID,0,VALID,23.1939,VALID,353,VALID,0,